Location: Borojevi?i
(45.0486°N, 16.2297°E)
Time: 16:22:30
(UTC+00:00)

Cosmos 2346 Rocket - Pass Details

Date: 08 August 2020
Orbit: 936 x 980 km, 82.9° (Epoch: 19 September)

Event Time Altitude Azimuth Distance (km) Brightness Sun altitude
Rises 21:17:43 0° 354° (N) 3,613 8.6 -24.8°
Reaches altitude 10° 21:20:16 10° 358° (N) 2,662 7.6 -25.0°
Maximum altitude 21:26:16 60° 79° (ENE) 1,066 4.5 -25.5°
Enters shadow 21:27:03 55° 112° (ESE) 1,113 4.5 -25.5°
